Weather History for Florala, AL

Change the Weather History Date:

Friday, May 9, 2014

  Actual Average (KCEW) Record (KCEW)
Temperature  
Mean Temperature 78 °F -  
Max Temperature 84 °F 82 °F 93 °F (2011)
Min Temperature 71 °F 59 °F 47 °F (1992)
Cooling Degree Days 12    
Growing Degree Days 28 (Base 50)    
Moisture  
Dew Point 69 °F    
Average Humidity 83    
Maximum Humidity 96    
Minimum Humidity 61    
Precipitation  
Precipitation 0.00 in - - ()
Sea Level Pressure  
Sea Level Pressure 30.11 in    
Wind  
Wind Speed 5 mph (South)    
Max Wind Speed 15 mph    
Max Gust Speed 23 mph    
Visibility 8 miles    
Events      
Averages and records for this station are not official NWS values.
T = Trace of Precipitation, MM = Missing Value Source: NWS Daily Summary

Daily Weather History Graph

Daily Weather History Graph

Search for Another Location

Airport:

Trip Planner

Search our weather history database for the weather conditions in past years. The results will help you decide how hot, cold, wet, or windy it might be!

Date:

Astronomy

May. 09, 2014 Rise Set
Actual Time 5:54 AM CDT 7:29 PM CDT
Civil Twilight 5:27 AM CDT 7:55 PM CDT
Nautical Twilight 4:56 AM CDT 8:27 PM CDT
Astronomical Twilight 4:23 AM CDT 9:00 PM CDT
Moon 2:46 PM CDT (5/9) 2:34 AM CDT (5/9)
Length of Visible Light 14h 28m
Length of Day
13h 35m
Waxing Gibbous, 74% of the Moon is Illuminated
May 9
Waxing Gibbous
May 14
Full
May 21
Last Quarter
May 28
New
Jun 5
First Quarter

Hourly Weather History & Observations

Time (CDT) Temp. Heat Index Dew Point Humidity Pressure Visibility Wind Dir Wind Speed Gust Speed Precip Events Conditions
12:58 AM 71.1 °F - 69.1 °F 93% 30.12 in 9.0 mi SSE 3.5 mph - N/A   Partly Cloudy
1:58 AM 71.1 °F - 69.1 °F 93% 30.10 in 8.0 mi SSE 3.5 mph - N/A   Clear
2:02 AM 71.6 °F - 69.8 °F 94% 30.11 in 7.0 mi South 3.5 mph - N/A   Partly Cloudy
2:12 AM 71.6 °F - 69.8 °F 94% 30.11 in 6.0 mi South 3.5 mph - N/A   Mostly Cloudy
2:37 AM 71.6 °F - 69.8 °F 94% 30.09 in 7.0 mi Calm Calm - N/A   Scattered Clouds
2:58 AM 72.0 °F - 69.1 °F 91% 30.08 in 7.0 mi Calm Calm - N/A   Clear
3:17 AM 71.6 °F - 69.8 °F 94% 30.10 in 6.0 mi Calm Calm - N/A   Partly Cloudy
3:32 AM 71.6 °F - 69.8 °F 94% 30.10 in 5.0 mi Calm Calm - N/A   Mostly Cloudy
3:58 AM 71.1 °F - 69.1 °F 93% 30.09 in 5.0 mi Calm Calm - N/A   Overcast
4:32 AM 71.6 °F - 69.8 °F 94% 30.09 in 5.0 mi SE 3.5 mph - N/A   Overcast
5:58 AM 71.1 °F - 70.0 °F 96% 30.10 in 5.0 mi SSE 4.6 mph - N/A   Overcast
6:58 AM 72.0 °F - 70.0 °F 93% 30.13 in 4.0 mi SSE 4.6 mph - N/A   Overcast
7:58 AM 73.0 °F - 70.0 °F 90% 30.14 in 5.0 mi South 5.8 mph - N/A   Overcast
8:29 AM 73.4 °F - 69.8 °F 88% 30.16 in 6.0 mi SSW 8.1 mph - N/A   Overcast
8:58 AM 73.9 °F - 70.0 °F 87% 30.16 in 8.0 mi South 6.9 mph - N/A   Overcast
9:25 AM 75.2 °F - 69.8 °F 83% 30.17 in 10.0 mi SSE 5.8 mph - N/A   Mostly Cloudy
9:32 AM 75.2 °F - 71.6 °F 89% 30.17 in 10.0 mi South 5.8 mph - N/A   Mostly Cloudy
9:41 AM 77.0 °F - 69.8 °F 78% 30.16 in 10.0 mi South 8.1 mph - N/A   Mostly Cloudy
9:58 AM 79.0 °F - 70.0 °F 74% 30.15 in 10.0 mi South 8.1 mph - N/A   Mostly Cloudy
10:12 AM 80.6 °F 83.9 °F 69.8 °F 70% 30.15 in 10.0 mi South 11.5 mph - N/A   Scattered Clouds
10:58 AM 82.0 °F 84.9 °F 68.0 °F 62% 30.14 in 10.0 mi South 10.4 mph - N/A   Mostly Cloudy
11:58 AM 81.0 °F 83.8 °F 68.0 °F 65% 30.13 in 10.0 mi South 12.7 mph 19.6 mph N/A   Scattered Clouds
12:58 PM 84.0 °F 87.8 °F 69.1 °F 61% 30.11 in 10.0 mi SSW 13.8 mph 23.0 mph N/A   Partly Cloudy
1:58 PM 81.0 °F 83.3 °F 66.9 °F 62% 30.11 in 10.0 mi South 15.0 mph 21.9 mph N/A   Mostly Cloudy
2:58 PM 82.0 °F 84.9 °F 68.0 °F 62% 30.09 in 10.0 mi South 13.8 mph 20.7 mph N/A   Mostly Cloudy
3:58 PM 81.0 °F 83.8 °F 68.0 °F 65% 30.07 in 10.0 mi South 11.5 mph - N/A   Scattered Clouds
4:58 PM 80.1 °F 82.9 °F 69.1 °F 69% 30.06 in 10.0 mi South 9.2 mph - N/A   Clear
5:58 PM 78.1 °F - 69.1 °F 74% 30.06 in 10.0 mi South 10.4 mph - N/A   Scattered Clouds
6:58 PM 75.9 °F - 69.1 °F 79% 30.05 in 10.0 mi South 4.6 mph - N/A   Partly Cloudy
7:58 PM 75.0 °F - 70.0 °F 84% 30.06 in 10.0 mi SSE 5.8 mph - N/A   Scattered Clouds
8:58 PM 73.9 °F - 70.0 °F 87% 30.08 in 10.0 mi South 5.8 mph - N/A   Scattered Clouds
9:33 PM 73.4 °F - 69.8 °F 88% 30.09 in 10.0 mi SSE 3.5 mph - N/A   Mostly Cloudy
9:43 PM 73.4 °F - 69.8 °F 88% 30.09 in 10.0 mi SSE 5.8 mph - N/A   Scattered Clouds
9:58 PM 73.9 °F - 70.0 °F 87% 30.08 in 10.0 mi SSE 4.6 mph - N/A   Partly Cloudy
10:58 PM 73.0 °F - 70.0 °F 90% 30.08 in 10.0 mi South 4.6 mph - N/A   Partly Cloudy
11:46 PM 73.4 °F - 69.8 °F 88% 30.09 in 10.0 mi SSE 4.6 mph - N/A   Partly Cloudy
11:57 PM 73.0 °F - 70.0 °F 90% 30.08 in 10.0 mi SSE 3.5 mph - N/A   Mostly Cloudy